Starlink 31666

operational
NORAD ID: 59572 Int'l Des: 2024-076 Owner: SPXS Country: US Constellation: starlink
LEOCIRCULAR

Starlink 31666について

説明を読み込み中...

リアルタイム位置

3D地球を読み込み中...

次回通過

高度履歴

Altitude vs Time

uPlot chart will show altitude changes over time

軌道要素

1 59572U 24076J 25306.45206028 .00001176 00000-0 52252-4 0 9995
2 59572 43.0015 0.5973 0001216 277.1646 82.9067 15.27573377 87127
Epoch: Nov 2, 2025 • Age: 15 hours

現在のステータス

高度 494.0 km
速度 7.62 km/s
衛星直下点 -38.90°S, 163.1°E
打ち上げ日 Apr 23, 2024
運用期間 1.5 years
タイプ internet

技術仕様

分類 Payload
質量 730.00 kg
乾燥質量 700.00 kg
総質量 730.00 kg
長さ 0.30 m
直径 4.10 m
スパン 29.00 m
形状 Box + pan
製造者 SPXS
バスタイプ Starlink V2M
フェーズステータス In Orbit
所有者/国 SPXS/US

大規模コンステレーション

Loading constellations...